Location: Unspecified
(0.0000°N, 0.0000°E)
Time: 06:39:38
(UTC+00:00)

Tiros 1 despin weight - Pass Details

Date: 10 October 2023
Orbit: 583 x 628 km, 48.2° (Epoch: 28 November)

Event Time Altitude Azimuth Distance (km) Brightness Sun altitude
Rises 11:36:16 0° 198° (SSW) 2,899 ? 82.8°
Reaches altitude 10° 11:38:55 10° 185° (S) 1,996 ? 83.0°
Maximum altitude 11:42:42 25° 130° (SE) 1,267 ? 83.3°
Drops below altitude 10° 11:46:29 10° 74° (ENE) 1,999 ? 83.3°
Sets 11:49:08 0° 61° (ENE) 2,904 ? 83.3°
